星链-5296 (STARLINK-5296 )

导读

STARLINK-5296是美国SpaceX公司星链(Starlink)星座的一颗低轨通信卫星,于北京时间2023年1月19日发射入轨。作为星链卫星互联网项目的组成部分,它运行在约550公里的近地轨道,依托低轨卫星组网优势,为全球提供高速宽带互联网接入服务,助力消除网络覆盖盲区,支撑移动通信、偏远区域互联等应用场景,是Starlink大规模星座部署进程中的一颗组网卫星。

Basic Information
目录编号:
55312
目录名称:
STARLINK-5296
国际标识:
2023-010AV
轨道中心:
EARTH
卫星名称:
星链-5296
卫星全名:
星链-5296 (STARLINK-5296 )
卫星状态:
在轨 (已飞行1334 天)
发射日期:
2023-01-19 UTC
国别 :
美国 (US)
星等 :
--
This satellite is enrolled in the Space Conjunction Data Service (SCDS) and the current flight risk assessment level is: No High Risk
Orbit Information
数据来源 国际轨道数据 AOE轨道数据
星历时间 2026-09-14T06:49:05+0800
19小时前
查看轨道信息
2026-09-12T21:00:00+0800
2天前
查看轨道信息
半长轴 6950.193km 6950.197km
偏心率 0.0003575 0.0003308
轨道倾角 69.999° 70.000°
近地点辐角 265.962° 259.336°
升交点赤经 249.600° 253.153°
平近点角 94.114° 62.319°
近地点 569.571km 569.76km
远地点 574.541km 574.36km
周期 96.107分钟 96.107分钟
每日圈数 14.983302 14.983289
Detailed Information
固有亮度:
5
最大亮度:
2.5
卫星平台:
Starlink v1.5
覆盖范围:
全球
运营商:
太空探索技术公司
运营商所在国:
美国
制造商(研发单位):
太空探索技术公司
制造商所在国:
美国
使用方式:
暂无
Satellite Introduction
星链(Starlink)计划是由太空探索技术公司(SpaceX)提出的一个巨型低轨卫星互联网星座项目,计划在2019年至2024年间在太空搭建由约1.2万颗卫星组成的“星链”网络,其中1584颗将部署在地球上空550千米处的近地轨道,并从2020年开始工作。该卫星仍在工作。
2D Orbit Map
3D Orbit Map
Orbit Altitude Analysis Chart
Orbit Inclination Analysis Chart
Orbit Comprehensive Analysis Chart
View Comprehensive Chart
Conjunction Data List
Event ID Objects TCA Miss Dist (km) Collision Risk Probability Collision Risk Index (CRI) Action
CDM_260916-151504-145605-531224
2026-09-16T
15:15:36+0000
1.615 km
极远距离
4.120767E-6 低风险 0.47
Miss Distance Evolution Trend with All Objects Subscribe to Flight Safety Assessment
Collision Probability Evolution Trend with All Objects Subscribe to Flight Safety Assessment